Powrót do katalogu

STARLINK-30943

AktywnyŁącznośćVLEO
NORAD 58449·PAYLOAD·🇺🇸 United States

Wystrzelony Nov 28, 2023 z Cape Canaveral Space Force Station

Loading…

Następne Przeloty (najbliższe 24 godziny)

TLE

ŚwieżeSource: CelesTrak SupGP

Epoka: Sep 15, 2026, 02:21 UTC

1 58449C 23183N   26258.09840278 -.00012015  00000+0 -43519-3 0  2581
2 58449  43.0027  26.0753 0001648 271.4577 312.9069 15.27582353    15

Śledź STARLINK-30943 w czasie rzeczywistym z AllMySat

Download on the App Store